GFSSW_sfc_temp_093.txt.gz
Temp
65 65 65 65 65 65 65 65 64 65 65 64 64 64 64 64 64 62 59 67 70 71 69 71 71 71 71 66 67 62 52 49 52 54 55 62 59 63 63 64 63 64 63 67 71
65 65 65 65 65 65 65 64 64 64 64 64 63 63 63 64 61 57 67 70 71 70 70 67 65 67 62 64 63 58 50 54 60 60 58 61 62 63 61 59 58 59 66 69 70
64 64 65 65 65 65 64 63 63 64 64 63 63 63 62 61 55 58 69 70 70 69 71 69 67 64 60 61 58 57 55 59 61 63 65 62 60 63 60 55 60 59 63 65 66
64 64 64 65 65 65 64 63 63 63 64 63 63 63 62 60 46 65 69 69 69 69 68 66 62 60 58 55 62 55 61 63 62 63 64 62 63 62 61 60 66 65 66 65 65
63 63 63 64 64 65 64 64 63 63 63 63 63 62 60 53 55 68 68 68 67 65 64 63 60 61 56 58 60 57 59 63 62 61 62 65 60 60 60 62 64 65 66 63 64
62 62 63 63 64 65 64 64 64 63 63 63 63 63 57 48 68 69 68 65 65 63 63 64 63 65 61 60 58 60 61 61 62 59 60 60 56 61 58 61 62 63 61 62 64
62 62 62 63 64 64 64 64 64 63 63 64 63 62 52 56 70 69 68 64 66 64 63 66 68 62 62 58 62 60 55 54 57 59 58 60 55 56 61 62 61 61 59 62 65
62 61 61 62 63 63 63 63 63 62 63 64 64 56 49 67 68 68 69 67 68 71 69 69 68 63 60 59 57 56 52 46 54 58 56 56 50 58 60 59 58 59 58 61 64
61 61 61 62 62 62 63 62 61 62 63 63 56 51 48 66 63 67 68 63 65 67 68 72 65 59 56 50 46 46 40 45 48 56 54 53 50 57 59 59 56 56 58 59 61
60 60 61 62 62 62 62 61 61 61 61 63 62 46 54 55 63 65 67 66 61 61 62 60 58 52 48 44 40 40 42 46 45 54 52 50 49 55 58 57 56 55 56 58 60
59 60 61 62 62 61 60 56 49 48 51 46 48 50 55 61 65 62 66 64 62 57 49 54 46 45 47 49 52 49 49 48 47 52 52 51 52 54 57 55 53 53 55 58 57
59 60 61 62 61 61 59 50 52 54 44 53 54 54 58 61 54 58 65 56 53 48 53 49 44 51 55 54 53 49 47 43 45 50 49 49 51 53 55 55 56 57 55 55 55
58 60 60 61 61 59 56 55 63 62 47 51 55 53 54 58 53 54 61 57 51 47 49 45 50 57 55 51 51 48 47 44 46 46 45 45 43 49 52 54 54 54 55 55 55
59 60 60 60 55 56 53 62 62 57 38 43 48 53 55 56 50 59 61 58 52 47 49 48 55 55 50 51 53 46 53 49 45 45 38 43 35 43 47 49 51 51 51 51 51
58 59 60 61 57 52 58 60 60 58 22 45 48 58 56 51 52 52 58 56 50 50 49 45 49 49 47 51 54 49 51 48 46 43 38 37 36 41 45 43 47 48 50 50 49
57 57 59 58 57 59 60 60 57 37 23 40 45 45 46 48 49 52 54 55 56 52 51 48 51 52 52 51 54 53 50 48 44 40 32 38 38 37 40 49 44 47 48 49 48
55 57 58 59 52 61 59 53 34 23 44 37 38 43 44 42 45 47 48 45 44 41 41 45 46 49 52 48 49 49 43 31 31 28 29 33 33 41 46 50 50 47 47 47 47
53 57 57 56 60 58 54 42 19 33 39 44 43 44 41 45 41 45 43 43 47 48 41 36 34 45 50 48 44 42 44 31 26 24 30 33 33 43 46 47 49 50 48 47 46
51 54 51 51 60 58 46 30 30 38 44 41 43 39 38 44 43 42 43 45 47 48 41 40 38 46 47 49 52 43 39 45 33 19 25 31 36 44 45 45 46 46 46 44 45
44 50 46 49 59 53 40 34 39 48 47 46 37 40 33 40 38 39 41 48 48 51 51 47 36 42 45 48 47 45 50 38 34 21 22 29 31 37 39 43 44 45 44 44 45
42 43 44 49 54 45 33 36 43 50 51 45 41 40 40 38 40 39 41 46 53 51 52 48 41 37 43 41 42 42 40 41 41 34 27 23 32 43 46 46 45 46 47 45 45
37 33 44 47 40 41 37 42 49 48 49 48 48 45 42 43 41 42 41 47 56 52 46 47 40 31 37 42 43 42 45 44 36 32 32 31 35 46 45 50 49 48 48 47 47
32 33 43 45 33 35 42 44 46 45 44 45 45 48 48 44 39 43 44 45 48 51 47 47 37 27 33 40 41 41 43 46 41 33 28 27 33 45 42 46 49 47 47 47 46
33 32 36 39 36 40 39 40 42 47 45 47 45 47 45 43 44 41 41 44 46 48 48 50 40 36 33 37 41 37 40 43 43 31 32 32 37 41 43 45 46 47 48 47 46
35 31 32 32 34 39 41 42 41 40 44 46 42 44 44 38 40 40 40 41 44 46 46 48 35 40 40 42 42 42 41 41 41 48 40 46 40 45 45 46 49 49 47 46 45
33 32 34 32 33 39 39 35 40 41 42 40 41 43 44 40 42 38 41 40 42 41 45 44 31 37 31 38 40 36 41 42 46 45 43 41 42 50 50 49 48 48 47 47 46
38 39 35 33 32 35 35 39 38 44 43 45 45 43 42 44 45 47 47 46 44 42 40 42 35 32 27 31 33 30 37 40 43 45 48 42 51 47 46 50 50 48 49 49 49

GFSSW_sfc_temp_096.txt.gz
Temp
66 66 65 66 65 66 65 66 66 66 65 65 64 64 64 64 65 63 60 67 69 70 71 69 69 67 69 64 65 63 51 49 52 52 56 57 59 59 60 62 59 60 59 64 67
65 65 65 66 65 65 65 66 65 65 64 64 64 63 64 64 61 58 67 70 71 70 69 65 63 66 60 62 63 58 50 54 60 57 58 59 61 61 59 55 54 56 61 68 66
64 65 65 65 65 65 65 65 64 64 64 64 64 64 63 63 55 58 69 70 70 70 70 69 67 64 59 61 60 58 54 59 61 59 61 61 59 58 58 52 57 56 61 65 64
63 64 64 64 65 65 65 64 63 63 64 63 63 63 62 61 46 62 69 69 70 69 69 65 62 59 55 57 60 54 61 61 62 60 61 60 62 58 57 58 62 63 65 65 64
62 63 63 64 64 65 64 63 63 63 63 63 63 62 60 53 54 66 68 69 68 66 65 61 60 58 54 58 58 55 56 59 59 62 61 63 59 59 57 55 62 63 64 64 65
61 62 62 63 64 65 64 63 63 63 63 63 63 62 58 48 65 66 67 67 67 65 63 64 59 60 56 56 57 58 58 56 58 58 59 59 57 59 58 55 59 62 61 62 63
60 62 62 63 63 64 64 63 62 62 63 63 63 60 51 52 66 65 66 65 68 67 61 64 65 61 58 52 61 56 51 52 53 56 56 60 54 54 57 57 58 58 58 60 62
60 61 61 62 63 63 64 62 62 62 63 63 63 55 47 63 67 63 64 64 67 69 67 67 66 62 60 60 58 54 49 44 51 55 53 55 49 56 57 56 56 55 55 58 61
60 61 61 62 62 63 63 62 62 63 63 63 54 50 47 63 60 64 65 60 62 62 62 67 63 57 57 52 47 44 40 41 46 55 52 52 49 55 56 57 55 54 55 57 59
60 61 61 61 62 62 62 62 61 62 61 62 60 45 52 52 59 63 65 61 54 54 57 58 56 50 49 47 41 39 40 42 42 51 50 49 49 52 56 55 54 54 53 55 57
59 61 61 61 62 62 60 56 51 49 52 46 47 47 52 58 63 59 61 57 54 50 49 53 46 44 50 48 50 49 48 46 45 50 49 49 50 53 54 52 52 53 51 53 56
59 61 61 61 62 62 60 52 53 55 43 51 51 52 55 57 51 58 64 52 47 43 51 47 43 51 53 53 51 49 47 44 44 48 48 46 50 50 52 53 53 54 51 53 52
58 60 61 61 61 59 57 54 61 61 45 48 51 50 53 57 49 52 58 52 48 43 47 43 47 54 52 49 49 45 44 42 46 44 44 43 44 47 52 51 52 54 53 53 53
58 59 61 60 56 58 54 59 64 57 37 42 45 50 53 54 47 57 59 55 48 41 45 46 53 51 49 50 50 42 50 49 45 42 38 43 36 41 46 50 51 52 50 52 52
57 59 60 61 56 52 58 59 63 54 23 43 45 56 54 49 49 50 57 53 44 42 44 43 48 46 47 51 52 47 50 47 43 41 40 36 36 41 40 42 48 49 49 50 50
57 57 59 56 58 60 59 58 54 35 22 37 44 43 43 46 46 50 51 52 57 47 44 46 52 52 51 51 53 51 49 45 41 40 32 38 38 38 38 46 52 46 48 48 46
54 57 59 59 53 59 59 55 32 24 42 34 36 42 43 40 42 44 45 42 40 37 38 43 45 47 54 46 48 49 46 32 31 31 30 33 33 43 45 48 49 53 46 44 45
51 57 57 58 61 58 52 41 21 33 36 41 40 43 39 43 40 42 43 40 43 44 40 36 33 44 50 49 43 43 47 31 25 23 28 33 32 42 46 47 49 49 47 44 43
51 54 51 52 60 56 47 32 31 37 42 39 41 38 34 41 40 40 41 42 45 45 40 39 38 44 47 49 51 45 41 44 32 18 27 31 35 46 43 42 43 43 45 43 43
44 51 48 54 58 52 41 34 38 44 44 45 34 38 30 39 36 36 38 46 44 48 50 45 36 42 44 47 48 46 49 38 33 23 20 28 30 37 39 44 42 42 44 43 43
42 45 44 52 54 45 35 37 41 47 49 43 37 36 37 38 36 36 38 42 50 46 49 45 41 36 43 41 41 42 41 39 39 33 27 22 31 41 47 49 44 45 45 44 43
37 33 44 51 40 41 38 40 47 45 47 46 45 42 40 42 37 38 37 43 54 49 44 45 39 31 37 42 43 42 44 44 37 32 29 29 34 43 44 46 46 44 45 44 44
33 33 44 49 34 35 43 43 46 45 44 44 43 45 44 43 37 40 41 48 50 50 46 45 36 27 33 39 40 40 43 45 39 34 29 30 35 43 41 43 46 45 44 44 43
33 32 36 43 38 41 37 40 39 46 44 46 44 45 43 41 42 38 38 43 46 52 48 50 39 36 33 38 40 35 40 42 44 32 32 32 38 42 42 42 44 46 45 44 44
33 30 31 32 34 39 40 43 39 39 42 45 40 43 43 38 39 38 39 40 44 46 47 47 34 38 39 42 44 41 41 43 42 48 41 46 39 46 46 44 46 47 45 44 43
32 32 33 32 34 39 38 38 39 39 40 38 40 42 44 40 42 36 39 39 42 42 45 43 30 36 31 38 39 37 41 42 44 44 41 38 38 48 47 46 45 47 46 45 45
38 38 34 32 35 37 35 38 41 42 40 43 44 43 42 43 46 47 47 46 45 44 46 42 33 28 24 30 34 31 37 40 43 47 47 41 51 47 45 47 47 47 47 47 47

GFSSW_sfc_temp_102.txt.gz
Temp
62 63 62 66 66 66 66 67 66 66 65 65 65 65 65 65 65 59 57 65 68 71 68 66 68 67 68 65 65 62 49 44 49 51 52 54 55 53 54 55 55 56 56 59 62
62 62 62 64 66 66 66 66 66 66 65 64 65 65 64 64 58 55 66 70 71 70 66 64 63 64 60 60 62 58 49 52 57 56 52 55 56 57 55 52 51 52 57 61 63
62 62 62 63 65 66 66 65 65 65 64 64 64 64 64 63 56 55 69 70 70 70 67 66 66 63 58 57 57 57 52 56 58 60 58 56 55 54 54 49 56 56 55 60 62
62 61 61 59 65 66 66 65 65 65 65 64 64 64 64 63 43 59 69 69 69 67 67 65 62 58 55 56 58 54 59 58 59 58 57 55 56 54 55 56 59 60 59 60 61
59 60 61 60 63 65 65 65 65 65 64 64 63 63 61 52 52 64 67 67 65 64 65 61 59 58 54 56 58 53 57 58 59 60 56 58 55 53 54 53 55 59 60 60 61
60 60 60 59 62 64 65 64 65 65 64 63 63 63 57 47 63 63 64 63 62 64 63 63 58 60 56 55 57 57 57 56 58 57 57 57 51 52 52 53 55 58 57 59 60
60 60 59 60 62 63 64 64 64 65 64 63 63 62 55 55 62 62 63 61 62 64 61 62 62 59 55 54 57 57 52 54 56 57 55 56 50 53 52 54 54 55 56 56 58
58 60 59 60 61 62 63 63 64 64 63 62 63 60 51 61 60 61 62 62 66 66 64 63 63 55 54 52 54 52 51 43 49 53 54 55 47 53 52 53 52 52 53 55 56
57 58 58 59 60 61 63 63 63 64 63 63 57 56 49 61 57 59 60 59 62 61 63 66 61 53 52 48 45 47 44 41 48 51 50 51 48 52 51 52 51 51 52 54 54
57 58 58 59 60 61 62 64 63 61 61 58 58 51 51 49 54 57 60 62 57 57 56 55 52 45 45 46 38 41 42 45 45 49 47 46 49 49 49 50 51 51 52 52 54
57 58 59 59 60 62 60 58 52 51 52 48 48 49 50 55 59 55 61 60 57 54 46 49 43 38 43 48 50 50 43 44 47 51 50 48 50 54 50 46 48 48 49 51 53
56 56 58 59 60 62 60 54 54 56 43 49 51 51 53 58 49 52 61 52 49 45 47 43 39 48 50 49 49 45 44 45 47 49 48 47 49 48 48 49 49 51 48 51 50
55 55 58 58 60 59 57 57 61 60 45 47 51 50 51 54 47 49 55 51 49 43 44 42 47 51 49 47 45 42 41 43 45 44 44 43 46 45 48 47 49 50 50 50 52
54 55 57 58 55 57 54 60 65 60 37 38 44 49 51 52 45 53 56 53 46 44 45 43 51 48 46 45 46 40 49 48 44 45 39 42 34 42 44 48 47 50 48 50 50
54 54 55 58 57 52 55 62 63 57 27 41 43 56 51 50 47 48 54 52 43 43 44 41 43 43 44 46 49 45 50 47 45 42 39 37 34 43 38 43 45 48 49 52 52
53 54 53 56 58 59 57 56 53 36 25 35 43 42 45 43 44 48 49 52 51 44 45 42 43 48 48 49 50 50 46 44 42 39 31 40 36 36 42 43 47 51 51 54 50
53 54 51 59 53 59 55 49 33 29 36 31 34 41 42 37 39 45 42 38 36 35 34 38 40 41 46 45 48 50 43 31 31 27 31 33 32 46 45 46 50 56 56 54 47
52 52 53 58 59 58 52 41 28 32 34 37 38 42 35 40 36 40 39 34 38 37 34 33 30 39 45 46 40 44 43 30 23 24 32 32 32 41 48 48 49 49 49 48 45
51 50 53 54 59 58 45 33 34 34 37 35 39 35 31 38 36 38 38 38 39 39 33 33 34 40 42 46 49 42 40 42 32 19 25 31 36 44 45 47 45 46 45 46 46
45 46 50 55 57 52 42 37 35 40 41 43 32 36 28 36 32 33 37 43 39 43 43 38 31 38 43 48 45 41 47 35 35 22 22 28 29 38 40 48 49 46 46 46 45
44 39 50 56 54 44 35 39 38 43 46 40 34 32 35 35 33 35 36 38 45 42 42 40 36 33 41 39 38 37 36 38 40 34 26 23 33 40 49 51 53 52 51 48 44
38 32 46 55 40 39 38 41 44 40 42 41 40 37 38 39 32 37 35 43 50 48 41 42 35 28 33 38 43 43 41 42 34 30 28 29 36 43 45 46 47 48 47 44 43
32 33 45 50 34 34 42 41 43 39 40 40 39 40 41 39 33 36 38 46 49 47 43 43 34 24 30 36 36 36 39 40 41 35 32 30 37 45 42 45 47 45 43 42 41
33 31 36 44 41 39 38 39 36 42 41 42 40 42 40 39 38 35 36 42 46 50 47 50 38 34 29 33 36 32 37 40 40 32 33 35 40 45 49 51 48 45 43 41 41
33 30 31 33 36 40 43 40 35 36 40 42 38 41 39 33 35 33 36 38 41 46 47 45 36 35 34 36 41 38 39 40 39 42 36 41 39 44 48 52 50 47 42 41 40
32 31 32 32 37 40 42 38 36 36 38 37 38 40 40 35 39 32 37 37 39 39 42 40 28 34 28 35 36 35 40 42 44 44 42 44 44 52 49 47 47 47 43 42 42
36 36 33 32 36 37 38 40 38 39 38 42 42 40 38 41 47 49 48 46 44 43 43 39 31 26 24 27 31 27 37 38 41 44 45 40 49 48 48 47 49 47 44 45 45

GFSSW_sfc_temp_105.txt.gz
Temp
64 63 63 62 61 64 66 67 67 66 66 65 65 65 65 65 65 59 56 65 67 70 69 68 70 68 68 65 65 63 52 49 53 53 56 57 59 59 60 58 59 61 60 63 64
63 63 62 62 63 60 66 66 66 65 65 65 65 65 64 64 58 55 66 70 71 70 66 65 63 66 62 61 61 59 51 54 59 59 57 57 58 58 59 57 57 58 59 62 63
62 62 62 62 62 60 64 66 65 65 65 65 65 65 64 63 54 55 68 70 70 69 68 67 66 64 59 59 58 58 55 58 59 61 60 58 57 58 56 53 58 58 57 61 62
61 62 62 61 62 62 61 65 65 65 65 65 64 64 64 61 43 59 68 69 70 67 67 64 63 59 56 55 58 56 59 59 60 59 60 57 58 56 57 61 61 62 62 62 61
61 61 61 61 61 62 61 65 65 64 64 64 64 63 62 53 52 63 67 68 65 64 64 62 59 58 55 56 57 55 57 60 59 58 59 58 57 58 56 58 59 59 61 61 62
60 60 60 61 61 61 61 64 65 64 65 64 64 64 58 46 62 63 63 62 62 63 63 64 60 61 57 56 56 57 57 57 59 58 58 57 55 55 59 56 56 57 58 61 62
59 59 59 59 60 60 59 63 64 64 64 63 63 62 55 54 62 61 63 61 62 63 61 63 64 61 56 53 55 56 53 56 55 57 56 59 54 56 58 56 54 55 57 59 62
59 58 59 59 60 60 59 62 64 64 64 63 63 59 51 61 60 61 61 60 64 65 64 64 64 57 55 54 55 52 53 46 53 54 55 54 50 57 54 56 53 54 54 57 59
58 58 58 59 60 60 60 62 63 64 64 63 57 54 47 61 57 59 61 58 61 63 64 66 60 52 52 49 46 48 42 45 49 54 52 52 50 56 53 54 53 52 54 56 57
57 58 57 59 59 59 61 61 62 63 61 60 58 50 49 49 54 58 59 63 58 58 56 54 51 46 46 47 39 39 42 44 44 51 49 48 50 55 52 52 54 52 52 54 56
57 57 57 58 59 59 59 57 52 50 54 50 49 47 49 53 58 54 61 60 57 54 45 49 44 42 45 49 50 49 46 45 47 52 48 47 49 57 53 50 50 51 52 53 54
56 56 57 56 59 60 59 53 55 58 46 51 51 48 53 59 50 53 61 53 51 45 47 43 40 48 50 50 49 48 45 44 47 49 49 47 48 54 51 51 52 53 51 53 53
55 55 55 56 58 57 55 55 62 61 45 45 48 49 51 55 50 50 57 53 49 45 45 40 44 49 49 45 45 43 45 44 45 45 47 45 46 49 50 49 50 51 53 52 55
55 55 54 53 54 56 53 61 64 61 38 38 43 47 51 52 45 54 58 53 47 45 45 45 50 46 44 44 47 40 47 47 46 44 36 45 35 45 48 50 48 51 49 54 54
54 54 54 53 54 52 57 60 61 55 28 39 41 51 50 50 46 47 54 53 44 43 44 41 43 44 42 43 49 43 48 45 44 41 37 37 38 43 44 44 49 50 51 53 55
53 53 54 52 55 58 58 57 54 37 26 33 41 39 42 43 44 46 48 52 51 44 45 42 45 48 45 46 50 47 44 41 40 40 30 37 39 36 48 48 50 52 54 56 55
52 53 52 53 51 57 56 52 35 31 35 31 34 40 40 39 40 45 42 40 39 36 35 39 41 44 46 42 45 45 37 29 28 26 26 33 35 46 47 49 54 56 57 57 56
52 52 52 53 55 55 53 42 31 31 33 37 39 41 36 40 38 42 41 38 37 37 37 34 31 40 45 44 39 41 40 31 23 24 27 31 33 40 48 54 51 52 53 51 51
52 49 48 51 54 55 45 33 31 34 35 37 40 36 34 37 38 40 38 40 39 38 34 35 35 40 44 47 48 40 34 42 34 18 24 31 36 46 45 48 48 49 49 51 51
45 46 46 53 56 51 40 33 34 39 40 42 34 36 32 33 32 35 36 39 38 41 41 37 31 38 41 47 43 42 47 35 32 24 20 29 30 38 42 48 51 50 49 53 50
43 37 44 50 55 45 33 33 37 42 47 40 33 31 35 33 32 33 35 36 41 40 42 39 36 31 39 39 37 38 37 35 37 32 25 21 32 40 47 50 50 53 51 50 49
38 32 46 52 42 42 38 37 44 43 41 39 39 36 38 38 31 33 33 40 46 46 38 41 34 27 33 37 43 40 38 39 34 28 31 28 31 45 45 47 48 50 50 49 46
33 33 43 43 32 36 41 40 42 40 39 39 37 39 42 39 33 35 36 44 47 46 43 41 33 23 32 36 36 37 38 41 39 34 31 29 36 45 43 44 47 48 49 47 45
34 31 33 34 40 41 36 36 38 43 41 40 38 43 39 37 35 33 35 39 44 47 47 48 36 33 29 32 37 33 37 40 40 31 32 35 41 43 46 46 47 49 48 47 44
34 31 31 31 34 40 42 40 38 36 39 41 37 42 38 32 31 31 34 36 40 45 43 43 30 33 33 35 37 36 36 36 36 38 33 39 39 45 49 51 54 49 46 43 43
32 31 32 32 36 39 41 38 39 35 38 37 38 41 38 35 38 32 36 35 36 39 41 39 28 33 27 33 36 34 38 39 40 41 39 40 39 46 46 48 48 52 48 48 46
36 35 33 33 36 37 36 39 40 40 39 41 42 39 37 38 43 45 47 45 44 44 42 38 31 26 19 27 30 25 35 36 39 42 42 36 45 46 45 48 52 54 48 50 50

GFSSW_sfc_temp_108.txt.gz
Temp
64 64 64 64 64 64 63 66 65 65 67 66 66 65 65 65 65 68 63 70 72 71 69 75 76 75 73 68 74 73 63 61 63 63 67 69 69 69 70 69 68 70 71 73 70
64 63 64 64 63 63 62 61 66 65 66 66 65 65 65 65 67 64 70 70 71 70 72 71 68 72 66 66 68 71 63 64 68 68 67 68 69 70 70 67 68 68 67 72 66
63 63 63 64 64 63 62 62 61 66 66 65 65 64 64 69 62 63 69 70 70 71 74 73 72 68 64 67 67 68 64 68 66 69 68 67 66 72 71 67 74 70 67 64 64
62 62 62 63 63 63 62 61 59 65 66 65 65 64 64 70 51 67 68 69 70 75 73 66 65 64 61 61 65 64 69 69 66 66 67 66 67 68 71 76 72 76 72 64 63
61 61 61 62 63 63 63 61 60 59 65 65 64 64 64 57 62 71 67 69 73 71 70 67 61 62 59 65 63 63 64 66 63 66 67 65 66 68 69 73 71 73 69 64 64
60 60 61 61 62 62 62 62 61 59 65 65 64 63 61 52 70 70 71 69 72 71 70 70 63 65 62 63 62 64 65 63 64 65 66 64 66 65 73 73 69 69 68 65 66
60 60 60 60 61 62 62 61 61 61 64 64 64 63 57 58 71 71 70 69 71 72 67 70 69 63 61 59 62 63 60 64 62 62 63 66 62 63 73 68 69 68 68 65 67
59 59 59 60 60 61 61 61 60 59 64 64 64 61 53 66 71 68 70 67 71 73 72 71 67 59 59 57 58 58 60 52 65 61 59 66 57 68 70 68 69 70 69 63 65
58 58 58 59 59 59 61 60 58 59 64 64 58 56 49 60 61 68 71 65 68 69 69 68 64 56 55 51 48 52 48 53 58 63 62 63 59 64 65 65 70 70 69 66 67
57 58 58 58 58 59 59 60 59 59 61 61 60 50 49 51 58 64 70 68 63 63 60 59 53 49 52 50 41 42 48 52 54 59 59 58 59 67 65 62 66 70 69 68 68
57 57 58 58 57 59 59 56 49 51 55 52 51 56 52 60 63 62 67 64 63 60 50 52 46 44 50 54 57 53 53 53 57 58 58 59 60 65 70 62 64 66 68 68 68
57 57 57 58 58 58 58 51 53 58 48 52 56 55 58 61 50 58 68 57 54 49 52 45 43 54 57 58 52 54 51 53 57 58 57 59 57 64 67 64 66 68 68 68 69
56 56 56 57 55 54 54 54 61 62 48 46 53 52 53 59 51 53 62 56 52 48 49 46 52 53 53 49 48 47 47 52 52 54 56 56 55 60 65 63 65 65 69 69 68
55 55 56 55 50 54 52 58 60 65 39 38 42 48 53 55 48 60 63 57 51 46 50 50 54 51 49 50 51 41 51 51 51 48 43 55 41 58 64 64 61 64 65 66 67
55 55 55 55 49 50 58 58 62 53 27 39 41 49 49 49 48 50 64 56 48 48 48 45 46 47 48 47 52 46 52 49 46 47 40 46 41 54 59 58 63 64 66 66 68
53 54 54 51 50 51 59 58 53 36 28 34 41 41 42 44 48 46 51 57 59 50 52 47 51 53 51 51 53 52 43 42 39 37 32 43 42 50 58 59 65 67 67 68 68
53 53 52 53 47 55 56 51 35 30 35 31 36 41 42 39 41 45 43 42 42 38 38 42 45 49 54 45 50 46 43 31 30 30 37 44 43 51 63 63 66 68 69 69 69
52 53 52 52 51 50 53 41 30 32 34 39 40 39 37 41 42 43 43 40 46 51 40 35 32 43 51 50 42 41 43 36 29 31 40 39 40 51 61 61 66 65 68 67 68
52 49 48 50 51 49 46 32 33 36 38 37 38 36 33 37 40 41 42 44 46 52 43 39 37 47 47 52 50 41 37 48 37 29 35 45 50 57 58 62 61 62 63 65 67
46 46 47 52 52 46 41 34 33 43 45 42 36 43 32 34 37 40 41 50 45 49 54 48 35 44 46 51 48 48 50 37 38 29 31 44 43 48 55 58 63 63 64 67 66
44 39 45 51 49 40 32 32 35 46 49 45 40 41 43 37 42 42 42 46 50 47 53 51 44 35 43 42 44 44 43 42 44 40 35 35 46 59 60 62 61 62 63 63 63
40 33 45 50 34 38 34 34 43 46 50 47 48 48 43 44 42 44 40 44 53 51 46 49 42 33 37 46 48 51 47 44 39 32 40 36 42 56 59 59 58 60 60 61 60
33 35 43 42 31 33 35 37 44 43 46 47 43 48 49 44 38 40 41 50 53 51 49 47 40 30 32 40 43 44 46 48 48 40 34 35 44 62 59 57 58 59 61 62 59
35 32 35 35 36 35 34 35 37 48 44 46 46 49 47 43 45 39 40 44 50 53 47 50 42 41 36 41 41 36 42 45 44 35 40 41 48 56 56 57 59 59 61 61 61
35 32 32 30 33 37 42 38 36 35 43 47 44 46 46 40 39 40 40 42 46 48 50 51 37 42 44 45 45 43 41 42 41 44 40 46 45 52 58 59 61 64 61 57 57
33 33 32 32 33 35 39 37 37 42 43 43 43 47 48 42 44 39 42 43 42 46 48 46 36 42 33 40 43 39 43 44 43 45 46 47 46 57 60 60 59 60 60 58 58
37 36 35 34 32 33 36 40 41 45 43 47 48 46 45 48 50 49 51 49 47 47 46 43 36 34 32 35 37 33 39 43 45 48 47 41 49 56 55 56 58 60 61 61 62

GFSSW_sfc_temp_111.txt.gz
Temp
64 65 65 65 64 65 64 65 65 64 64 64 64 65 65 65 65 69 67 74 75 71 70 76 75 74 76 74 79 79 68 64 65 67 70 74 72 75 77 73 75 75 76 77 73
64 64 64 64 64 64 64 63 64 64 64 63 64 64 65 65 70 67 72 71 72 70 76 74 68 74 69 71 74 71 66 66 73 73 71 72 73 75 72 73 72 71 74 76 69
63 63 64 64 64 64 64 63 61 63 64 63 63 63 64 69 65 67 71 70 71 72 79 79 77 66 65 70 71 71 65 73 71 73 74 71 71 76 73 72 77 74 72 71 66
62 62 63 63 63 64 63 63 62 60 63 63 64 62 63 68 50 73 69 70 70 78 77 74 72 66 60 63 71 61 73 74 72 70 71 71 72 71 73 77 77 82 79 70 64
61 60 61 62 63 63 63 63 63 62 59 63 63 62 59 57 64 73 67 69 75 75 73 70 68 67 62 65 66 63 71 71 71 70 71 71 70 70 73 79 78 80 75 68 65
60 60 60 61 62 63 63 63 62 62 61 57 63 62 57 49 76 76 73 72 75 73 72 73 69 70 66 64 65 70 70 69 69 69 69 69 70 69 76 81 76 76 74 70 68
59 59 60 61 61 62 63 63 63 61 61 60 62 61 54 56 76 77 74 72 75 74 71 75 74 65 63 59 66 66 61 63 65 68 69 69 65 66 77 75 75 74 76 73 69
59 59 60 60 61 61 62 62 62 61 61 59 58 59 52 69 76 73 74 72 75 77 76 77 75 66 59 63 59 60 62 54 64 65 67 67 57 72 78 74 73 76 76 73 72
59 58 59 59 60 60 61 61 61 60 60 60 52 55 50 63 64 73 75 68 71 74 75 73 69 64 60 50 50 55 52 54 59 68 66 63 60 71 73 73 73 76 76 74 73
58 58 59 59 59 59 60 61 61 60 58 58 54 50 51 53 63 69 75 72 67 66 62 61 58 57 57 51 44 44 49 54 57 63 62 61 60 70 70 70 71 76 77 75 73
57 58 58 58 59 59 58 55 49 49 51 48 51 52 52 62 68 64 71 68 67 62 53 56 48 47 55 56 60 57 51 55 61 65 59 60 61 66 72 71 69 72 75 75 74
57 57 58 58 59 58 58 49 53 59 45 50 50 56 58 61 53 60 70 60 56 49 56 49 45 58 61 60 57 55 54 54 60 60 58 61 61 66 69 71 72 72 72 74 75
57 57 57 58 58 56 56 54 63 61 47 49 49 52 53 60 52 54 65 63 55 51 50 50 54 59 57 55 52 52 52 55 54 57 59 57 55 60 67 70 72 73 74 75 74
57 56 56 57 51 58 54 62 62 56 37 38 46 48 54 57 49 63 66 62 56 49 50 52 60 55 54 52 55 45 53 54 52 50 46 58 45 60 67 68 68 70 71 73 74
56 56 56 57 59 52 60 63 61 51 26 40 44 54 53 51 49 52 67 61 51 51 52 49 49 51 49 53 57 48 56 52 49 46 45 51 46 55 63 62 67 71 71 72 75
55 55 55 53 56 60 59 64 53 35 27 34 42 43 45 48 50 51 53 60 62 53 54 48 53 55 56 58 56 54 46 45 45 43 35 48 48 51 58 63 67 71 74 74 75
54 54 54 57 51 58 55 49 34 29 34 31 36 43 44 43 43 46 43 46 45 40 40 45 47 51 54 46 50 48 47 34 32 32 34 49 45 52 62 67 69 69 73 76 76
54 54 53 55 59 54 49 38 28 35 33 37 41 44 40 44 43 44 42 41 54 54 44 37 32 45 54 48 42 43 44 37 32 34 42 43 41 52 65 67 65 71 72 73 74
53 52 51 53 53 51 37 28 32 33 37 38 42 38 37 41 42 42 41 44 52 57 46 40 39 49 50 53 51 42 37 50 40 33 37 47 52 61 63 65 67 68 69 70 71
49 48 49 54 53 43 33 30 33 44 44 43 37 40 33 34 40 40 40 50 52 59 60 51 36 45 46 53 51 50 52 39 40 32 32 45 49 52 57 63 68 67 68 70 72
47 41 46 53 49 36 29 32 34 46 50 43 42 40 40 36 45 41 42 49 56 57 60 56 45 36 44 44 43 45 43 48 49 45 37 37 48 63 64 65 65 66 65 67 68
42 33 45 51 35 35 32 34 39 40 50 51 52 50 44 45 43 42 41 49 57 57 50 54 45 32 38 48 52 52 47 48 42 35 42 42 44 63 65 65 64 63 64 66 66
34 37 44 44 31 32 36 37 38 41 45 48 48 52 51 46 39 46 46 55 55 54 52 51 42 30 31 41 48 46 51 51 51 42 37 37 46 67 65 61 62 64 65 66 65
36 32 35 38 35 34 34 34 34 47 48 53 53 54 49 47 49 43 44 49 54 56 49 51 46 42 36 42 46 40 46 49 48 39 42 43 51 60 60 60 63 63 64 66 66
37 33 33 31 33 34 36 37 36 36 45 52 48 51 48 41 43 41 44 46 51 50 52 53 38 47 49 50 48 46 44 47 44 47 43 48 50 55 61 63 65 67 66 65 64
34 33 33 33 33 33 34 34 36 34 44 45 46 51 52 44 46 40 44 46 44 50 50 52 38 44 34 47 48 42 47 47 46 49 49 50 50 61 63 64 62 63 63 63 64
39 39 36 34 33 32 33 36 38 44 49 52 51 50 48 51 55 53 52 50 51 48 48 46 37 35 31 39 39 33 41 46 48 50 50 45 53 59 58 59 61 62 63 63 64

GFSSW_sfc_temp_114.txt.gz
Temp
65 65 65 65 65 65 65 65 65 65 65 65 65 64 64 64 65 66 65 73 74 71 69 75 74 73 72 71 72 72 58 56 61 62 62 69 65 67 69 67 66 68 66 68 69
64 64 64 65 65 64 64 64 64 65 64 64 64 64 63 63 61 64 72 73 72 70 74 70 68 70 66 67 67 62 57 61 68 67 64 68 66 67 64 66 63 64 68 67 68
63 63 64 64 64 64 64 63 63 64 64 64 63 63 62 62 55 62 72 72 71 71 77 76 72 64 63 66 66 64 58 68 69 70 71 68 64 67 64 62 67 64 64 64 67
62 62 63 63 64 64 64 63 62 62 64 64 63 63 61 59 47 72 71 71 70 74 75 73 69 60 53 57 66 58 68 69 67 67 67 67 67 64 64 62 69 72 69 64 64
62 61 62 62 63 64 64 63 63 62 61 64 63 62 59 52 55 73 68 69 72 72 71 69 66 63 58 58 64 61 64 69 68 66 65 67 65 63 63 68 71 72 70 62 64
61 60 60 61 62 63 63 63 63 62 61 60 63 62 57 48 70 73 72 70 72 70 70 71 67 69 64 64 61 64 65 65 65 65 64 64 64 62 66 68 69 69 66 63 63
60 60 59 60 61 62 63 63 63 63 62 60 62 60 54 56 72 73 72 69 72 71 68 72 72 65 62 59 63 63 58 60 61 62 62 64 59 60 68 68 67 67 65 64 63
60 59 59 60 60 61 61 63 63 62 62 62 59 59 52 66 74 71 71 69 73 75 73 74 73 63 60 60 58 55 56 49 59 61 61 61 51 64 70 66 65 66 65 64 64
59 59 59 59 60 60 61 62 62 62 62 62 55 52 49 64 62 71 72 65 69 71 72 76 68 59 57 52 48 48 46 50 54 63 60 57 50 63 68 66 63 64 66 65 65
58 58 59 59 59 60 60 61 61 61 60 60 57 48 51 52 61 68 72 70 64 65 62 61 58 52 51 50 41 43 45 51 50 58 59 54 53 61 62 64 62 63 65 65 64
58 58 59 59 59 60 58 55 49 47 51 49 49 49 51 59 65 63 69 66 65 59 49 55 47 44 49 52 56 53 50 49 56 60 55 53 55 60 63 60 60 61 63 65 66
57 58 59 59 59 59 57 50 53 57 44 52 55 53 58 59 51 58 68 56 54 47 54 47 44 53 57 57 53 53 51 50 53 58 53 53 54 59 62 63 63 62 62 64 65
57 57 58 59 58 56 53 53 63 61 46 49 51 52 51 54 51 52 61 57 52 48 50 45 50 57 56 54 50 51 50 49 50 54 55 49 47 53 59 62 64 64 65 65 65
57 57 57 58 52 54 51 60 61 56 37 41 44 49 51 50 48 60 62 59 53 47 51 50 56 53 54 51 53 46 52 51 50 48 43 48 35 49 56 59 62 63 61 62 64
56 56 56 58 55 50 58 62 57 50 24 46 44 56 56 44 49 51 64 58 49 50 50 46 50 51 49 51 56 48 53 49 49 44 42 44 38 44 54 53 58 63 63 63 64
56 56 56 53 54 58 61 60 52 35 25 36 44 42 43 45 48 51 53 54 60 53 52 48 52 54 53 56 56 52 47 45 41 42 34 42 41 41 49 55 57 62 64 65 65
55 55 54 57 49 58 55 50 32 27 36 33 38 43 43 41 44 46 45 42 43 39 38 44 46 50 53 49 50 49 45 32 32 32 32 43 39 45 55 58 57 59 61 63 65
55 55 54 56 55 56 49 39 25 33 33 39 40 43 38 45 44 45 42 39 48 48 41 38 33 44 52 49 43 46 45 33 27 27 31 35 33 45 58 59 59 60 61 60 59
54 50 49 52 54 51 40 26 29 34 38 37 40 38 37 42 42 42 41 40 47 53 42 39 38 47 50 51 50 41 39 46 35 25 28 36 43 52 56 57 56 58 58 58 59
47 46 47 53 52 46 33 29 32 42 38 43 36 41 34 36 38 40 39 47 49 56 55 47 33 44 44 51 49 46 49 37 36 24 24 34 36 42 48 53 57 57 57 57 57
45 39 48 52 49 38 28 29 35 43 42 36 41 38 36 35 38 39 40 46 54 54 55 51 40 35 43 42 40 42 41 44 43 38 29 27 36 48 53 56 57 55 56 56 57
43 32 47 49 34 35 31 34 43 41 44 38 39 45 37 40 39 41 39 46 57 57 49 47 41 31 35 46 51 49 44 46 38 33 36 33 34 54 55 55 56 54 56 55 56
34 35 44 45 29 30 37 39 42 40 41 37 36 49 49 42 39 45 45 51 57 55 50 47 38 29 31 37 43 43 47 49 45 37 31 29 36 55 52 53 54 54 55 56 55
36 31 35 37 37 35 33 34 35 42 42 44 37 47 47 43 46 43 44 49 55 56 49 50 42 37 33 39 41 38 43 46 44 32 34 38 42 46 50 52 52 53 55 55 55
38 33 33 29 32 34 38 36 34 34 39 43 38 42 45 41 41 43 44 47 52 49 49 48 34 41 43 46 45 42 43 45 43 46 40 45 44 50 52 51 54 56 56 54 55
34 32 32 33 34 32 34 33 33 37 38 36 36 44 49 40 41 40 46 46 45 46 46 47 34 38 30 41 44 39 44 45 45 46 46 44 44 54 53 53 54 54 55 54 54
40 40 36 35 32 30 32 34 36 40 40 45 41 45 47 47 50 51 52 50 50 47 46 44 36 33 25 32 35 28 40 44 45 48 48 40 48 51 50 53 52 53 54 54 55

GFSSW_sfc_temp_117.txt.gz
Temp
65 65 65 65 65 65 65 65 65 65 65 65 65 65 65 64 65 65 60 69 71 72 69 69 68 67 69 66 67 64 53 52 56 55 57 63 60 63 64 64 64 64 62 64 66
64 64 65 65 65 65 64 65 64 65 65 65 64 64 63 63 63 60 70 72 71 70 69 65 61 67 63 63 65 61 50 55 63 59 60 65 62 63 61 59 57 57 61 65 64
63 64 64 64 64 64 64 64 64 64 65 64 65 63 62 63 56 60 70 72 71 71 70 70 66 63 61 59 59 58 52 63 63 65 66 63 61 65 61 56 60 57 58 61 61
62 63 63 63 64 64 64 63 63 63 64 64 63 62 61 60 48 67 69 71 71 71 68 67 62 56 57 55 60 53 63 62 63 64 64 63 65 61 61 61 67 63 62 62 63
61 62 62 63 63 64 64 63 63 63 63 64 63 61 60 53 56 69 67 69 71 69 64 64 59 55 53 54 59 55 59 64 63 63 63 65 61 61 60 63 64 64 63 61 62
61 61 61 62 62 63 63 63 63 62 63 63 63 63 57 49 69 70 69 68 69 67 66 64 61 62 56 58 57 62 61 63 63 62 60 61 59 62 62 64 62 62 59 59 61
61 60 60 61 62 62 63 63 63 62 62 63 63 62 55 53 69 69 70 67 69 68 63 66 66 61 58 54 59 62 54 60 60 58 58 60 56 59 66 64 61 59 58 58 59
60 60 59 60 61 61 62 62 62 62 62 62 62 58 51 66 68 68 68 65 66 68 69 69 66 60 55 55 55 51 52 49 57 58 59 59 49 59 64 63 60 58 56 58 60
59 59 59 59 60 60 61 62 61 62 62 62 55 52 49 62 60 65 66 61 62 64 69 71 66 54 56 48 44 48 43 49 54 60 57 55 48 59 62 62 60 58 57 59 59
59 59 59 59 59 60 60 61 61 61 59 58 56 48 51 52 59 61 66 65 58 58 59 60 56 48 49 44 38 39 45 49 50 54 54 50 50 58 58 60 60 59 58 60 59
58 59 59 59 59 60 58 53 49 46 51 46 48 47 51 56 62 60 65 61 58 54 47 52 48 43 45 49 50 48 46 46 50 56 52 53 50 55 59 57 56 57 58 59 60
58 58 59 59 60 60 55 50 52 52 43 51 50 52 54 57 51 57 65 54 51 45 51 47 43 50 51 50 48 49 45 47 53 56 54 50 50 54 57 58 58 59 59 58 60
57 58 58 59 59 56 52 51 61 56 41 45 49 48 50 55 50 51 57 53 49 47 47 44 49 52 51 48 46 46 46 49 50 53 54 45 44 49 56 57 60 61 61 61 60
57 57 57 58 53 52 48 56 56 54 32 37 43 47 50 51 45 58 59 55 49 46 49 48 51 51 48 47 49 42 51 51 49 47 39 46 33 44 51 53 57 59 57 60 60
57 57 58 59 49 49 52 57 55 51 21 41 44 55 49 47 50 49 60 56 48 48 48 44 46 46 45 48 53 45 51 49 47 41 38 39 36 41 48 49 53 59 58 59 61
57 57 57 54 49 53 58 57 51 32 22 35 43 42 42 45 44 50 50 53 57 51 51 47 52 51 51 52 53 50 47 45 44 42 35 39 39 37 45 53 55 57 61 63 61
56 56 55 54 47 54 55 49 31 26 36 33 38 42 42 40 42 45 44 43 42 37 39 43 45 50 54 46 49 49 46 33 32 32 31 40 37 45 49 54 55 57 59 59 58
55 55 53 52 52 52 50 39 25 30 31 37 40 42 37 41 41 42 42 40 46 44 39 35 33 45 50 51 43 46 45 31 24 28 28 34 32 42 55 60 57 59 60 57 59
54 48 46 48 52 50 42 28 28 29 36 35 38 36 36 41 40 40 38 42 45 48 40 37 36 45 47 49 50 42 42 44 32 22 26 32 39 49 52 54 55 56 55 56 57
43 43 42 50 50 45 33 30 30 38 38 37 33 37 33 36 37 38 38 45 44 50 52 45 34 43 43 50 48 46 49 38 33 23 22 30 32 39 45 50 53 55 55 53 53
42 35 44 51 48 38 27 22 30 40 41 34 34 34 37 37 40 37 40 41 48 49 52 49 40 35 42 42 43 42 42 40 41 34 28 25 32 45 50 54 52 52 54 53 52
37 25 46 49 34 33 25 28 41 38 42 38 37 34 33 39 40 40 39 42 49 52 47 47 41 32 38 42 48 48 45 47 38 33 34 32 34 50 50 52 51 50 52 51 52
32 34 45 42 28 28 31 35 38 37 38 38 35 39 39 36 37 42 45 54 51 52 49 45 37 30 30 38 42 43 45 48 42 36 34 29 33 49 46 49 49 49 51 53 54
35 30 35 38 34 30 26 29 31 40 40 42 41 41 38 33 39 39 41 49 52 55 50 48 40 39 34 38 41 39 44 46 41 32 33 39 38 42 47 49 49 50 51 51 53
34 26 28 30 31 34 35 33 32 31 39 41 38 39 35 32 32 39 44 46 50 52 49 47 35 40 41 42 45 42 42 43 42 44 39 45 43 47 49 48 50 52 52 52 53
34 32 32 31 35 33 34 32 32 34 36 35 35 40 39 33 35 36 44 46 44 46 45 46 37 38 30 40 42 39 44 44 45 47 47 43 43 51 50 50 49 51 52 52 53
39 39 33 34 33 31 32 33 34 37 39 43 40 39 40 39 44 43 50 51 48 43 43 44 35 32 24 33 35 28 39 43 45 49 48 42 49 49 49 49 50 52 51 53 53

GFSSW_sfc_temp_123.txt.gz
Temp
64 65 65 65 65 65 66 66 66 65 65 65 66 65 65 65 65 63 59 67 68 70 69 65 65 64 64 61 63 61 50 47 55 53 53 59 57 58 59 60 57 58 57 60 64
64 64 65 65 65 65 65 65 65 65 65 65 64 64 65 65 63 59 68 71 71 70 65 61 57 61 57 58 59 55 48 54 61 55 56 59 59 60 58 55 53 54 58 60 63
64 63 64 64 64 64 64 64 64 65 64 64 64 64 63 65 58 60 70 69 70 69 67 65 62 58 54 54 55 54 50 61 59 58 60 59 55 57 57 53 58 57 57 59 60
63 63 63 63 64 64 64 64 64 64 65 64 64 63 63 62 49 63 68 69 68 71 68 62 58 54 51 52 57 50 57 62 61 60 60 57 59 56 57 59 61 62 60 60 60
62 62 62 63 63 64 64 64 64 64 64 63 63 62 60 54 57 67 66 67 67 67 65 62 56 53 51 53 55 52 55 63 62 60 58 60 58 57 57 60 59 60 60 60 60
62 61 62 62 63 64 63 64 64 63 64 64 63 62 57 50 67 68 66 65 66 64 64 63 60 60 52 51 53 55 58 60 62 60 57 58 55 55 58 56 56 58 58 59 59
61 61 61 62 62 63 63 63 63 63 64 64 63 61 56 55 66 67 67 65 65 64 61 63 62 59 53 49 55 55 51 57 59 59 55 57 53 54 57 56 55 56 55 57 58
61 60 61 61 61 62 61 62 63 63 63 63 63 58 51 63 63 65 66 64 66 65 62 61 63 58 54 53 51 47 48 45 55 58 58 56 47 56 59 55 55 54 54 55 57
60 60 60 61 61 61 62 62 62 63 63 63 56 54 49 61 58 63 65 61 62 62 63 64 59 53 54 45 41 41 36 41 48 58 56 54 46 56 57 55 55 54 54 55 56
60 60 60 60 61 61 61 62 61 59 57 57 55 50 50 51 57 60 63 64 58 58 55 55 52 48 48 47 36 36 36 41 43 52 51 47 46 53 54 54 55 53 53 54 56
59 59 60 60 61 61 59 53 48 46 49 44 44 45 49 55 60 57 61 59 58 55 46 49 44 42 46 50 45 43 40 41 43 51 50 51 49 51 56 53 52 52 52 53 55
59 59 59 60 60 61 56 49 51 51 43 47 48 48 51 53 51 53 61 53 51 46 49 45 41 49 50 49 48 43 39 38 44 48 48 47 47 50 52 55 55 56 53 54 57
59 59 59 59 60 57 52 49 56 54 42 43 46 46 49 51 48 51 55 53 50 46 47 42 45 51 49 46 45 41 40 39 42 45 46 42 43 46 51 54 55 55 58 57 58
58 59 59 59 54 53 49 54 54 52 30 36 40 45 48 49 45 56 56 54 48 45 47 46 51 48 46 44 46 40 45 46 44 41 36 43 33 42 46 51 53 58 57 58 56
58 59 59 60 52 49 53 53 53 49 12 38 40 52 48 44 46 46 57 49 44 46 46 43 44 44 42 45 49 43 48 47 43 38 38 37 38 39 42 43 49 55 58 59 59
58 58 58 55 52 54 56 53 49 31 19 32 40 41 41 42 42 46 47 50 50 45 46 46 48 50 47 50 51 49 45 43 40 39 34 39 38 36 42 45 49 54 56 58 57
57 57 56 55 47 55 55 48 31 25 33 32 35 40 40 38 40 42 42 42 40 37 37 43 44 47 50 45 47 47 43 32 31 32 31 36 33 44 46 50 53 57 57 54 55
57 57 56 51 55 55 51 39 25 30 28 39 38 40 36 38 39 39 38 39 45 44 38 36 32 43 50 46 41 42 43 30 25 26 29 33 32 41 51 58 59 53 53 53 54
57 52 49 50 55 53 42 30 29 29 36 37 39 34 34 39 37 38 38 38 43 46 38 38 38 45 48 48 50 42 39 45 32 19 24 31 35 44 47 49 50 49 51 53 53
49 47 47 53 54 48 37 32 31 38 40 42 33 37 30 35 35 36 36 43 42 48 47 42 36 42 47 49 49 47 50 37 34 21 20 29 29 39 40 52 56 51 49 54 51
47 41 46 52 52 42 32 34 31 39 41 38 35 35 37 35 38 36 36 40 46 44 49 45 39 35 44 42 41 42 42 42 41 32 27 24 33 41 51 51 53 56 50 50 52
40 32 47 51 37 37 32 32 36 37 41 38 38 36 34 38 34 35 36 41 46 47 40 45 39 32 37 47 48 49 44 44 37 33 30 30 37 46 46 49 48 50 51 50 50
34 35 45 48 30 30 32 32 38 35 36 37 34 37 37 35 34 39 37 47 45 46 42 45 35 30 33 38 42 43 46 47 46 36 35 31 40 44 43 45 47 49 49 50 49
34 30 35 38 33 31 29 32 32 39 39 40 38 39 36 32 34 32 36 43 42 44 49 48 38 33 32 36 41 38 43 46 44 37 39 39 44 42 45 45 45 47 48 48 48
31 28 32 30 28 29 33 33 31 31 37 40 35 36 34 29 31 31 36 39 44 43 40 44 36 39 41 42 43 42 43 44 42 44 39 44 43 49 49 48 47 47 47 47 48
30 30 27 19 31 28 32 29 32 31 33 32 33 37 36 31 34 29 35 38 38 41 41 43 34 38 35 40 42 40 42 45 45 45 45 46 45 51 53 47 44 48 47 48 50
33 34 32 33 27 28 28 31 32 35 36 38 38 36 35 37 41 41 43 43 41 38 37 37 36 33 30 37 36 32 40 42 45 48 47 41 49 47 47 48 48 48 48 50 52

GFSSW_sfc_temp_129.txt.gz
Temp
65 65 65 65 65 65 66 66 66 66 65 66 66 65 65 66 65 63 58 67 68 70 69 65 66 65 65 63 63 61 52 49 54 53 57 59 59 61 63 61 61 62 62 63 65
65 64 65 65 65 65 65 66 65 65 65 65 65 65 65 65 64 59 68 71 71 71 66 63 59 62 59 59 59 56 49 52 59 59 59 60 60 60 61 59 60 61 61 61 64
64 64 64 65 64 64 65 65 65 65 65 65 65 64 64 64 58 60 69 71 71 70 67 64 63 61 56 56 56 54 51 57 60 61 61 60 58 60 59 56 61 61 61 60 63
63 64 64 64 65 65 64 64 64 64 65 65 65 64 62 61 49 60 69 69 70 68 66 62 60 55 52 52 56 51 56 58 60 60 60 59 59 58 58 63 64 64 62 61 62
62 63 63 63 64 64 64 64 64 65 65 64 65 63 60 55 56 63 66 66 67 66 63 60 56 54 52 52 54 52 54 58 61 59 60 60 59 58 59 62 62 61 59 59 62
62 62 62 63 63 64 64 64 64 64 64 64 64 63 57 50 62 64 64 63 63 62 60 60 57 57 53 52 53 54 55 57 59 58 58 58 57 58 61 60 60 59 58 59 60
61 61 61 62 63 63 63 63 64 64 64 64 63 63 55 55 63 64 64 62 61 60 58 59 60 57 54 50 54 54 50 53 55 57 57 58 55 54 62 59 59 58 58 58 59
60 61 61 61 62 62 62 62 63 63 63 64 63 59 53 60 62 61 61 60 62 61 59 61 62 58 54 54 51 48 49 44 52 55 56 57 50 57 61 58 60 58 57 57 58
58 60 60 61 61 62 62 62 62 63 64 63 57 54 49 61 57 60 62 57 59 59 59 60 59 53 54 47 45 42 38 41 47 54 53 53 49 56 57 56 59 58 56 56 57
56 58 60 60 61 61 61 62 61 59 58 58 56 50 50 51 55 59 63 61 56 55 53 53 52 49 47 45 38 40 37 40 42 50 49 47 49 52 54 54 55 55 56 56 57
57 56 60 60 60 61 60 54 48 45 50 48 48 47 48 53 57 56 61 58 57 54 47 49 45 42 46 49 47 44 42 40 43 49 47 46 47 52 55 52 53 54 54 55 57
57 55 57 60 61 61 57 49 52 51 42 47 48 49 51 54 49 54 60 51 50 45 47 44 42 49 51 49 46 44 41 41 44 47 46 45 45 50 51 52 55 58 59 57 59
57 56 55 60 60 57 52 52 55 55 40 44 48 48 50 52 50 50 55 53 49 45 45 43 46 51 48 45 44 44 42 42 44 45 45 42 43 48 50 52 56 55 61 62 61
57 55 54 59 54 54 49 57 53 51 30 37 42 46 49 49 45 53 55 52 47 45 45 45 50 47 45 44 47 40 47 45 43 42 36 42 33 43 47 48 50 55 54 58 60
56 55 55 59 53 48 54 56 52 50 20 38 39 50 47 46 44 47 54 51 45 45 46 42 44 44 42 44 48 43 49 45 44 41 39 39 36 41 42 43 48 54 54 57 59
56 54 53 54 54 56 58 54 50 31 21 33 40 39 39 41 42 48 49 51 49 46 44 43 48 48 46 48 50 48 44 43 42 40 33 40 38 35 43 47 50 56 58 57 56
56 54 49 56 49 58 55 48 30 24 31 31 35 40 38 36 39 41 44 42 41 37 38 42 43 46 49 42 46 46 40 33 30 30 30 34 34 43 45 49 52 56 57 56 54
55 54 51 56 57 56 51 37 24 23 27 35 38 40 34 37 35 38 37 38 45 41 38 35 33 43 47 45 42 42 42 34 26 26 28 33 32 39 49 57 58 55 55 52 54
55 50 50 53 57 56 42 29 26 24 33 34 38 33 33 35 36 35 36 37 43 45 37 35 35 42 45 47 49 41 37 42 33 18 24 31 36 45 45 49 50 50 52 55 54
47 47 47 54 58 50 37 30 27 36 38 39 31 37 30 34 32 33 32 37 40 46 46 37 30 38 42 48 46 43 47 35 33 26 21 29 30 38 40 46 51 51 53 56 51
47 38 48 56 54 42 32 26 34 37 41 34 31 33 36 33 33 33 31 35 42 39 47 39 37 36 40 39 41 41 40 40 39 33 26 22 33 41 49 52 51 52 53 52 52
42 32 49 54 38 37 34 32 41 37 38 37 37 35 31 36 35 33 31 36 42 43 38 41 38 32 34 39 41 44 42 43 35 31 31 29 37 46 46 48 47 50 50 50 50
35 39 50 50 30 32 33 34 37 37 36 36 33 36 35 33 31 32 33 41 41 43 39 40 34 23 30 37 41 39 42 45 44 37 31 28 37 47 45 46 49 47 50 49 49
39 34 39 37 36 35 32 33 32 37 38 36 35 37 34 32 33 32 33 37 40 42 45 47 33 33 30 31 35 35 40 43 41 34 35 36 40 49 45 45 49 50 49 49 48
35 31 33 30 33 37 38 34 33 32 36 38 34 33 33 30 31 26 33 37 38 42 39 40 32 32 36 33 34 37 37 39 39 40 35 40 41 47 52 52 55 55 52 56 58
33 33 34 31 35 35 37 32 34 30 34 33 32 36 35 31 34 30 35 38 36 37 36 37 28 32 31 33 35 33 37 38 38 38 36 41 41 53 52 51 48 49 50 53 56
34 36 38 35 33 30 26 32 32 33 35 38 37 34 34 36 40 41 41 41 40 37 36 36 32 27 27 30 30 27 33 36 39 42 41 35 42 49 48 49 47 50 52 55 57

GFSSW_sfc_temp_132.txt.gz
Temp
65 65 66 65 65 66 66 66 66 66 66 66 66 66 65 66 65 66 64 73 74 70 70 76 77 76 77 74 74 74 67 62 64 63 68 70 70 71 73 72 70 73 73 73 77
65 65 65 65 65 65 65 66 66 65 65 66 66 64 65 65 64 61 72 71 71 71 75 74 72 74 73 70 72 71 65 65 70 71 69 70 71 71 70 70 71 71 72 72 73
64 65 64 65 65 65 65 65 65 65 65 65 65 64 64 65 58 61 71 71 71 71 75 75 74 72 68 70 69 66 65 68 69 71 71 70 69 72 71 68 75 74 75 71 70
63 64 64 64 65 65 64 64 64 65 65 65 65 65 63 62 50 65 68 69 68 75 73 70 71 67 65 64 67 63 66 68 68 68 68 68 71 68 71 76 75 78 77 71 69
62 63 63 64 64 65 65 64 64 64 65 65 64 64 60 56 57 64 65 67 69 72 71 67 66 66 63 64 64 63 65 67 69 68 69 68 68 70 69 77 73 73 71 71 71
61 62 62 63 63 64 65 64 64 64 65 65 64 63 59 51 63 66 63 62 65 70 68 68 67 68 65 63 64 65 64 66 67 67 68 65 69 67 73 76 73 71 73 73 72
61 61 62 62 63 63 64 64 64 64 65 65 64 64 57 59 68 64 65 62 63 62 62 64 66 64 65 60 64 63 60 63 66 67 66 67 63 63 76 71 72 72 74 73 72
60 60 61 61 62 63 63 63 63 63 64 64 63 62 55 65 70 65 65 61 63 64 61 61 66 64 62 63 60 60 59 55 64 64 66 66 58 72 75 72 73 75 75 73 72
59 59 60 61 61 62 62 62 62 63 64 64 58 56 52 62 59 66 67 60 62 63 63 63 62 56 59 57 53 53 53 52 57 63 63 62 60 70 71 69 71 75 76 74 74
58 59 60 61 61 61 61 62 61 62 63 64 57 50 52 53 60 62 67 64 58 57 54 55 53 48 48 52 44 48 48 50 53 60 59 60 59 67 67 66 69 73 75 72 73
58 58 58 60 61 61 60 56 49 49 52 52 52 50 54 55 63 59 62 60 58 56 48 54 45 40 46 48 48 52 49 48 51 59 55 58 59 64 70 69 68 70 72 72 73
57 57 58 60 61 61 60 50 55 60 45 53 53 50 55 61 50 55 64 54 51 47 51 46 43 51 51 49 50 48 46 43 50 54 52 57 56 63 66 65 68 70 72 73 73
57 57 57 57 60 58 57 55 64 66 46 46 50 52 53 56 52 51 56 56 50 47 47 44 48 55 51 47 46 47 42 42 42 45 51 52 53 58 65 66 68 70 72 74 75
56 56 57 57 54 56 53 61 59 63 40 38 42 49 52 53 48 55 57 54 49 46 47 47 50 50 48 47 50 45 52 50 48 41 36 52 40 56 61 62 63 66 69 71 74
57 56 57 57 52 50 56 60 55 55 24 41 43 52 50 51 50 48 54 51 49 49 49 46 46 46 46 49 53 50 53 50 48 44 44 47 39 51 58 55 61 67 70 72 73
56 56 57 53 52 56 60 56 51 32 24 34 41 43 42 44 45 50 49 52 49 49 49 48 53 51 50 54 54 53 49 48 47 44 35 46 45 49 55 58 62 67 70 72 73
56 56 55 54 48 58 55 49 30 26 37 32 36 42 42 39 41 44 44 43 39 37 37 42 44 49 53 47 50 50 46 34 32 32 35 44 44 50 60 61 62 66 70 72 72
55 55 54 53 53 55 50 38 27 30 33 40 43 42 39 40 41 41 42 40 42 42 38 35 33 46 52 51 45 45 47 38 29 31 40 40 39 50 60 64 66 67 68 67 68
55 51 50 51 54 55 42 30 29 34 39 39 41 37 39 42 42 42 43 41 45 45 40 38 38 49 50 51 53 43 38 50 37 29 35 45 50 55 58 59 60 60 63 65 67
48 46 46 51 53 49 37 32 32 42 44 44 35 40 33 36 40 41 41 48 46 49 49 44 37 44 50 52 51 49 50 35 34 30 30 43 43 49 53 56 60 61 61 64 67
46 39 49 50 50 42 32 31 35 45 48 42 39 38 40 38 42 39 41 45 51 50 53 47 44 38 46 44 44 40 39 39 42 36 32 33 45 60 60 63 61 62 61 62 61
41 33 46 50 37 37 33 35 43 42 45 42 45 43 39 42 40 40 39 48 51 53 45 49 43 35 41 47 48 51 44 43 35 34 37 37 41 60 61 61 56 60 62 60 59
35 39 47 49 31 32 36 39 43 41 42 39 37 43 44 40 34 41 42 47 48 50 47 49 40 32 35 42 47 44 48 49 48 41 37 34 43 61 62 61 62 59 62 62 60
39 33 39 41 40 36 35 36 35 42 39 40 39 44 41 36 36 37 39 44 46 49 46 50 43 38 35 40 46 40 44 47 46 36 39 41 46 55 59 60 62 62 64 66 66
36 32 32 30 34 40 42 39 34 35 40 42 38 42 38 33 34 33 40 40 44 44 47 48 35 41 44 44 42 40 38 43 43 45 39 45 47 53 57 59 61 60 60 61 62
33 33 35 34 38 39 39 37 36 34 38 36 38 40 41 35 39 33 41 42 41 42 44 43 34 39 32 42 41 38 42 42 39 38 40 42 43 55 59 60 58 58 59 60 61
39 43 42 38 38 37 38 39 36 40 39 43 42 40 36 38 44 45 49 47 44 43 41 40 35 31 30 36 35 29 38 42 44 47 45 40 48 56 56 56 57 59 60 60 61

GFSSW_sfc_temp_135.txt.gz
Temp
65 66 65 66 65 66 66 66 66 66 66 66 66 66 66 66 65 66 64 75 76 71 70 81 81 82 82 78 80 81 69 66 69 68 71 76 74 77 80 77 77 78 78 79 80
64 65 65 65 65 65 65 66 65 65 65 66 66 65 64 64 64 62 73 72 71 71 78 77 76 79 77 75 77 73 68 69 76 76 73 75 75 77 74 76 75 75 78 79 75
63 64 65 65 65 65 65 65 65 65 65 65 65 65 64 66 59 63 73 71 70 71 79 79 79 77 72 75 74 73 67 76 74 76 76 75 73 78 74 73 78 77 78 76 72
63 63 64 64 64 65 65 64 64 65 65 65 65 64 63 64 50 70 68 70 69 76 74 74 74 70 68 67 75 66 73 73 74 72 72 72 77 73 75 78 80 83 84 78 75
62 62 63 64 64 64 65 64 64 64 64 65 64 63 61 55 59 68 66 67 73 72 72 68 68 69 66 70 70 66 71 72 74 71 72 73 71 73 75 81 79 79 78 78 77
61 61 62 63 63 64 64 64 64 64 64 65 64 62 61 51 72 70 70 65 69 71 71 73 69 72 68 70 66 72 71 71 72 72 72 68 72 71 76 82 80 77 77 79 78
61 61 61 62 63 63 64 64 64 64 64 64 64 66 57 60 74 73 69 69 66 66 65 69 70 66 71 65 70 68 63 67 69 70 69 70 65 67 77 77 77 77 79 80 79
60 60 61 61 62 63 63 63 63 63 64 64 64 61 53 73 75 69 71 65 67 64 62 62 62 65 67 68 64 61 63 57 68 70 69 67 59 73 79 78 75 78 80 79 79
59 59 60 61 61 62 62 63 62 63 64 65 61 56 50 65 63 68 70 62 64 64 62 61 58 53 61 58 56 59 53 56 62 69 67 64 61 72 79 76 74 77 79 80 81
58 58 60 60 61 61 62 62 61 62 64 67 57 50 53 54 64 64 68 66 59 57 55 55 52 48 48 51 45 51 52 57 59 64 64 62 62 70 73 71 72 75 78 79 80
57 58 59 60 61 61 61 59 50 49 55 53 54 54 52 58 64 60 63 60 58 56 48 52 46 41 46 50 46 51 47 53 61 61 57 59 62 66 72 73 73 73 75 77 79
57 57 59 59 60 61 62 54 56 62 45 58 60 58 61 61 51 56 63 54 51 47 51 46 42 53 53 48 45 44 44 46 55 57 55 58 58 64 68 70 72 72 74 76 78
57 57 58 59 60 58 57 59 68 67 48 52 57 55 54 55 52 51 57 57 50 47 48 47 52 57 53 47 43 43 42 42 44 52 56 54 53 58 66 69 72 73 75 76 77
56 54 56 59 53 55 54 65 67 66 39 40 44 51 54 59 47 57 60 57 51 47 52 50 59 54 52 49 50 40 49 47 44 44 41 53 40 56 62 67 70 72 72 74 77
55 54 54 58 55 50 60 64 64 54 25 46 48 59 57 50 56 51 57 50 49 52 53 48 51 50 49 51 52 49 55 51 49 43 44 48 42 53 61 59 65 69 72 75 76
54 53 55 54 53 56 62 60 52 33 26 36 45 44 44 49 48 51 50 51 52 52 54 51 57 56 55 57 55 52 48 48 50 46 35 46 48 51 58 62 67 71 74 75 77
53 54 53 56 48 55 58 50 33 27 36 33 38 43 43 42 45 46 44 42 38 36 38 43 46 51 53 50 54 49 43 33 32 32 36 52 48 53 63 67 68 69 71 75 75
52 53 53 56 54 53 50 39 28 32 33 42 43 44 40 46 44 45 44 37 41 39 37 35 34 46 53 51 46 44 46 38 30 32 41 44 41 53 65 69 70 70 71 72 71
53 51 50 51 54 52 42 30 32 35 42 40 43 38 36 42 45 42 42 43 42 45 36 34 35 51 53 56 55 43 38 50 40 33 37 47 52 60 62 63 64 64 66 68 71
49 46 47 53 52 48 35 33 33 47 48 46 36 42 34 36 37 41 41 46 42 47 51 44 35 45 49 50 53 51 54 37 37 30 31 44 47 50 58 60 63 63 64 66 66
47 39 48 53 48 42 31 32 37 49 51 45 44 41 44 39 43 42 44 50 51 48 50 48 45 38 46 41 39 41 40 43 41 37 35 36 46 60 63 65 62 62 63 64 62
44 32 49 50 34 35 33 34 45 48 53 47 51 48 44 46 42 43 46 50 57 53 43 48 41 34 40 50 54 51 46 42 36 33 38 37 42 63 65 66 60 63 64 63 62
34 38 48 46 31 32 35 40 47 46 46 47 45 49 51 45 39 47 47 51 53 53 48 46 37 31 34 42 48 46 49 49 47 41 34 32 43 63 65 65 65 64 66 66 65
38 32 37 38 34 35 34 38 40 49 44 47 46 50 47 41 40 42 46 46 50 53 48 50 44 39 35 43 48 42 46 50 48 38 39 41 46 56 60 62 65 66 65 64 64
38 32 33 30 31 40 43 42 38 36 44 47 45 46 42 37 37 37 44 43 47 47 51 50 37 43 45 47 48 46 46 47 45 47 41 46 48 53 58 60 61 63 63 62 62
36 35 35 33 36 41 41 38 39 39 42 40 42 46 46 39 41 37 44 44 43 46 47 49 34 42 35 45 45 40 44 44 45 47 47 48 47 59 60 61 59 61 62 62 62
42 46 40 36 36 38 39 41 40 43 45 49 48 45 44 46 50 52 53 52 50 46 45 43 37 32 31 39 38 31 39 44 46 48 46 39 47 55 54 57 59 60 61 61 62

GFSSW_sfc_temp_141.txt.gz
Temp
64 65 65 66 65 65 65 65 65 65 65 66 66 66 66 66 66 65 62 70 71 71 71 73 72 72 70 67 68 66 52 49 54 57 57 64 62 67 67 64 65 67 64 66 69
64 64 65 65 65 65 65 65 65 65 65 65 65 66 66 65 64 61 70 71 71 71 71 67 66 68 62 63 64 58 50 55 61 61 58 63 63 64 61 61 60 61 63 66 66
63 64 64 64 65 65 64 64 64 64 65 65 65 65 65 65 58 61 71 72 71 70 71 70 69 65 59 60 60 58 53 61 62 63 65 63 63 65 61 58 64 63 61 62 62
63 63 63 63 64 65 64 64 64 64 64 65 65 63 63 63 48 64 68 71 70 72 69 66 64 57 55 55 63 54 62 63 65 64 64 61 64 62 61 64 67 65 67 63 61
61 62 62 63 63 64 64 64 64 64 64 64 65 62 61 54 56 68 67 68 70 69 66 63 58 58 53 57 60 56 60 64 65 63 62 64 60 59 62 67 67 68 67 63 62
60 61 61 62 63 63 64 64 64 63 64 64 64 62 57 48 68 68 67 66 68 66 64 64 61 61 58 57 55 59 61 62 63 64 62 60 60 59 62 66 63 67 64 63 62
60 60 60 61 61 62 63 63 63 63 63 64 64 61 55 55 69 67 67 65 66 65 60 64 63 59 57 55 62 61 54 56 58 60 60 61 55 56 64 65 65 64 64 65 65
60 59 59 60 61 62 62 63 63 63 63 64 64 57 51 66 66 65 65 62 65 64 61 60 64 60 57 57 57 52 53 45 56 60 61 59 49 58 64 61 62 63 61 64 67
58 58 59 59 60 60 61 62 61 63 63 64 56 52 49 65 60 64 63 58 59 60 60 63 58 52 56 51 47 48 40 44 49 60 58 55 51 58 64 61 60 60 63 63 64
58 58 58 59 59 60 60 61 61 61 61 62 58 47 52 51 60 61 60 61 58 56 53 53 51 48 46 46 40 42 41 44 43 52 55 55 53 56 61 61 58 59 60 62 63
58 58 58 59 59 60 58 56 50 47 52 46 48 48 52 58 60 58 60 56 55 54 47 51 46 43 45 49 48 45 42 39 43 51 50 47 47 52 58 58 57 58 59 62 64
58 58 58 58 59 59 56 50 54 54 43 52 53 53 56 58 50 54 59 52 50 46 50 46 43 50 52 50 48 45 42 42 45 52 48 46 47 52 55 56 57 58 57 59 61
57 57 57 58 59 56 51 52 59 60 45 46 51 51 51 55 49 50 55 54 49 45 45 44 48 51 49 47 44 42 43 42 42 46 47 45 43 48 54 56 61 63 64 64 62
56 56 57 57 52 52 49 57 60 55 37 39 44 49 52 52 45 54 57 53 48 45 45 46 52 49 46 45 45 40 47 46 44 41 35 45 33 43 48 52 56 60 62 65 67
56 56 56 56 48 47 53 58 58 50 24 41 44 58 52 47 48 47 54 50 46 47 46 44 45 45 44 46 48 43 47 45 43 41 39 38 33 38 46 45 52 56 58 61 65
55 55 56 52 49 54 56 57 52 33 24 37 45 43 43 45 46 47 47 51 50 44 44 44 50 51 49 51 50 51 46 45 44 40 32 39 37 39 43 49 50 56 57 58 58
55 55 53 52 45 53 55 49 33 27 37 34 38 42 42 41 43 43 43 42 40 35 34 40 40 47 51 43 49 46 41 32 30 31 29 40 36 43 49 52 54 56 54 55 56
54 54 53 52 53 53 50 38 26 34 30 40 42 42 38 41 42 40 39 39 42 39 37 34 32 44 48 46 43 43 41 33 26 27 28 36 32 40 53 56 56 57 56 55 55
53 47 45 50 51 51 41 28 30 32 39 39 41 36 37 40 40 40 40 41 41 43 33 33 34 45 48 52 50 43 38 44 33 23 26 32 40 49 54 51 52 53 52 52 54
45 42 44 51 52 46 35 32 33 42 43 43 34 40 33 36 35 38 39 42 41 45 44 38 33 41 48 48 48 47 49 35 35 26 22 29 33 39 46 48 50 51 51 53 52
44 37 44 51 49 39 30 31 33 44 48 40 38 38 38 37 39 36 37 39 45 44 45 42 37 35 40 40 41 40 40 41 41 34 28 25 32 46 50 51 50 52 54 55 54
40 30 44 49 34 33 31 33 38 41 46 46 44 40 39 41 38 38 34 39 46 45 39 44 38 30 36 41 42 41 40 40 35 30 31 32 33 50 51 52 51 52 53 53 53
33 34 46 45 29 30 34 35 39 37 40 43 41 45 45 40 36 38 40 43 47 45 42 43 36 27 31 37 40 34 38 38 40 35 30 28 31 49 52 53 51 50 51 53 54
34 30 34 37 34 35 33 33 34 43 42 43 43 46 43 39 38 38 39 42 46 47 46 47 37 32 32 33 40 35 37 37 34 32 33 34 37 45 46 48 49 50 50 51 51
33 31 33 29 31 34 38 37 32 33 41 46 43 44 40 35 34 33 37 39 43 45 45 45 34 34 35 38 39 37 36 39 35 37 33 38 39 45 49 48 48 49 50 51 52
33 32 33 32 34 33 35 35 36 35 37 39 39 43 44 39 37 34 37 37 36 42 42 42 27 34 28 38 38 35 39 40 39 40 40 40 40 48 48 49 50 50 49 47 47
40 41 36 34 32 35 35 34 37 42 42 44 46 43 39 41 46 46 45 44 42 40 38 37 30 22 16 31 34 27 36 38 40 42 43 36 45 48 46 48 41 41 44 43 43

GFSSW_sfc_temp_144.txt.gz
Temp
65 65 65 65 65 65 65 65 65 65 65 65 66 65 65 66 66 65 60 68 70 71 70 71 70 69 67 64 65 62 51 47 51 54 57 62 59 64 64 64 63 63 62 63 67
64 64 65 65 65 65 65 65 64 65 65 65 65 65 65 65 63 61 70 71 71 71 69 65 63 65 60 61 62 57 49 53 58 56 56 61 60 62 60 59 57 58 61 63 65
63 64 64 64 64 64 64 64 64 64 64 65 65 65 64 65 56 60 70 71 71 70 69 68 65 62 56 58 57 55 51 57 60 62 62 61 61 61 58 56 61 60 60 61 61
63 63 63 64 64 64 64 64 63 64 64 64 65 64 63 62 46 63 68 70 70 70 67 64 61 55 53 53 59 51 59 60 62 62 61 58 60 61 57 61 64 65 63 61 61
61 62 62 63 63 64 64 64 63 63 63 64 64 63 60 53 55 67 67 68 68 67 64 61 58 56 52 54 57 53 57 61 62 60 60 62 59 58 60 65 65 65 63 61 61
61 61 61 61 62 63 64 63 63 63 63 64 64 63 55 49 67 67 66 65 66 66 63 62 59 60 55 54 53 55 58 59 60 60 60 59 58 59 60 62 61 62 60 60 61
60 60 60 61 62 62 63 63 63 63 63 64 64 60 55 55 65 65 65 64 64 63 60 62 62 59 58 53 57 57 52 55 56 58 58 59 54 54 62 61 61 60 60 60 61
60 60 60 60 61 62 62 62 63 63 63 63 63 56 51 65 65 63 64 61 63 63 61 59 61 59 56 57 54 50 51 43 54 57 59 57 49 56 62 58 59 61 58 59 62
59 59 59 60 60 60 61 61 62 62 63 63 55 51 47 64 57 63 62 57 58 58 58 62 57 53 52 51 48 50 45 43 48 56 54 52 47 56 61 60 57 57 59 59 62
58 58 58 59 59 60 60 61 61 61 61 61 57 48 50 50 58 59 59 59 55 54 53 54 52 48 47 47 41 44 40 45 43 48 48 47 47 52 56 56 55 56 57 58 60
58 58 58 58 59 60 58 53 49 48 53 45 47 47 50 56 60 56 58 55 54 52 47 51 46 43 47 49 48 43 42 41 41 48 46 45 45 49 53 52 52 55 55 57 59
57 58 58 58 59 59 54 49 51 54 44 51 50 52 54 56 49 52 58 51 49 45 50 45 42 48 53 49 47 43 41 43 46 49 46 44 44 50 53 54 56 56 57 57 57
57 57 57 58 58 55 51 51 57 57 44 46 49 49 49 53 48 49 55 52 46 44 46 44 46 51 48 44 44 44 41 41 43 45 47 44 44 48 56 55 57 59 59 61 62
57 57 57 58 52 52 48 54 55 54 36 38 43 47 51 52 44 54 57 53 48 45 43 45 51 47 45 43 44 39 46 45 43 42 36 45 34 44 47 51 53 57 60 62 65
56 56 57 57 46 46 50 55 55 49 23 41 43 56 50 48 46 47 52 48 44 46 46 42 42 44 43 45 47 43 46 43 43 42 39 39 35 40 43 43 49 55 56 59 61
55 56 56 52 48 51 53 54 51 33 24 36 44 41 42 44 44 48 46 50 49 45 46 44 48 47 47 48 49 47 43 41 41 41 32 40 37 37 41 46 48 53 52 53 52
55 55 53 52 45 51 54 47 31 26 38 34 37 42 41 41 40 42 43 41 39 35 35 41 41 45 48 46 48 46 38 32 30 30 30 38 34 42 45 50 51 51 51 51 52
55 54 53 52 52 51 49 36 25 33 30 39 41 41 37 41 42 38 41 39 43 39 34 32 31 41 47 46 43 43 41 34 26 27 29 33 31 39 49 53 54 54 54 52 53
54 48 47 50 51 51 40 27 28 34 40 36 41 36 37 41 41 41 39 39 42 44 33 34 35 43 46 48 49 42 37 44 31 22 25 30 36 45 48 47 48 49 51 50 53
45 44 43 51 51 45 34 30 31 41 43 41 32 38 32 36 35 39 36 42 39 47 45 38 32 40 44 46 47 44 46 34 34 27 24 29 31 38 42 45 47 47 48 50 51
44 37 45 50 49 38 28 30 34 41 46 40 36 35 38 36 38 38 37 38 42 42 47 38 36 34 40 40 40 40 38 41 40 32 27 23 29 42 47 46 46 47 49 50 51
37 31 45 48 33 32 30 33 42 39 45 45 45 39 38 41 39 38 35 42 45 45 39 41 38 32 36 42 43 41 40 36 32 31 30 30 32 47 47 47 48 48 50 50 51
34 35 45 44 28 29 33 35 37 39 39 42 41 44 42 39 36 40 37 42 45 44 41 42 35 28 31 37 39 36 37 37 35 32 31 30 35 47 50 45 47 48 50 52 53
35 30 35 37 37 32 31 32 32 41 40 40 41 43 40 38 37 37 37 39 45 46 47 47 35 31 30 31 38 34 36 37 35 31 32 32 36 42 44 45 49 51 51 50 48
32 28 32 28 30 33 33 32 32 33 40 42 40 42 40 34 33 34 35 37 42 45 42 42 31 31 33 35 36 38 36 37 34 35 32 33 32 36 43 43 47 48 48 46 45
31 31 32 29 34 31 34 32 33 33 38 34 37 43 44 37 40 33 36 36 40 43 41 42 31 32 28 35 35 32 35 38 36 36 36 37 37 45 47 46 42 43 43 41 40
40 38 36 35 33 32 33 34 36 39 38 43 41 43 42 44 45 49 48 45 44 42 40 38 30 30 29 32 33 28 33 35 37 40 40 34 41 46 44 39 37 38 39 38 38